IT9BGI-13 Carini IT current weather conditions

sailwx.info

Wind from 025 at 3 knots gusting 7

Air temperature 30.0° C
Dewpoint 21.1° C

Last reported at 2019-Jun-27 11:05 UTC.
Time now 2019-Jun-27 11:27 UTC

Location: N 38°09' E 013°11'.
View on Google Maps.

See reports from other nearby stations

  
Tides and Currents Weather Stations Pressure Air Temp Water Temp Dewpoint Dewpoint Depression Visibility Wind Speed Wind Dir Waves Ship Positions
date/time (UTC)wind fromknots sea level pressurealtimeterstation pressurevisibilityair tempwater tempwave heightnotes
2019-Jun-27 11:10 029 4 gusting 7 30.0
2019-Jun-27 11:05 025 3 gusting 7 30.0
2019-Jun-27 11:00 019 3 gusting 7 30.0
2019-Jun-27 10:55 019 4 gusting 7 30.0
2019-Jun-27 10:50 020 4 gusting 6 30.0
2019-Jun-27 10:45 020 3 gusting 6 30.0
2019-Jun-27 10:40 007 2 gusting 6 30.0
2019-Jun-27 10:35 022 2 gusting 7 30.0
2019-Jun-27 10:30 035 3 gusting 7 30.0
2019-Jun-27 10:25 026 3 gusting 8 29.4
2019-Jun-27 10:20 017 3 gusting 8 29.4
2019-Jun-27 10:15 024 3 gusting 6 29.4
2019-Jun-27 10:10 034 4 gusting 6 29.4
2019-Jun-27 10:05 040 4 gusting 6 29.4
2019-Jun-27 10:00 028 3 gusting 6 29.4
2019-Jun-27 09:55 009 3 gusting 6 29.4
2019-Jun-27 09:50 016 3 gusting 6 29.4
2019-Jun-27 09:45 023 2 gusting 6 29.4
2019-Jun-27 09:40 030 2 gusting 5 29.4
2019-Jun-27 09:35 012 1 gusting 5 28.9
2019-Jun-27 09:30 008 2 gusting 6 28.3
2019-Jun-27 09:25 015 3 gusting 7 28.3
2019-Jun-27 09:20 009 3 gusting 7 28.3
2019-Jun-27 09:15 018 3 gusting 6 28.3
2019-Jun-27 09:10 026 3 gusting 6 28.3
2019-Jun-27 09:05 026 4 gusting 6 28.3
2019-Jun-27 09:00 033 4 gusting 7 28.3
2019-Jun-27 08:55 030 5 gusting 7 28.3
2019-Jun-27 08:50 021 4 gusting 6 28.9
2019-Jun-27 08:45 021 2 gusting 6 29.4
2019-Jun-27 08:40 040 1 gusting 6 29.4
2019-Jun-27 08:35 046 0 gusting 4 29.4
2019-Jun-27 08:30 341 0 gusting 4 28.9
2019-Jun-27 08:25 008 1 gusting 4 28.3
2019-Jun-27 08:20 028 1 gusting 4 28.3
2019-Jun-27 08:14 030 1 gusting 5 28.3
2019-Jun-27 08:09 025 2 gusting 6 28.3
2019-Jun-27 08:05 018 3 gusting 6 27.8
2019-Jun-27 08:00 019 3 gusting 8 28.3
2019-Jun-27 07:55 018 3 gusting 8 28.3
2019-Jun-27 07:50 017 3 gusting 6 28.9
2019-Jun-27 07:45 018 2 gusting 6 28.9
2019-Jun-27 07:40 026 1 gusting 4 28.9
2019-Jun-27 07:35 024 1 gusting 4 28.9
2019-Jun-27 07:30 015 1 gusting 4 28.3
2019-Jun-27 07:25 009 2 gusting 5 28.3
2019-Jun-27 07:20 010 2 gusting 5 28.9
2019-Jun-27 07:15 017 2 gusting 4 28.9
2019-Jun-27 07:10 016 0 gusting 3 29.4
2019-Jun-27 07:05 043 0 gusting 3 28.9
2019-Jun-27 07:00 060 28.9
2019-Jun-27 06:55 29.4
2019-Jun-27 06:50 032 28.9
2019-Jun-27 06:45 034 0 gusting 2 28.3
2019-Jun-27 06:40 036 28.3
2019-Jun-27 06:35 340 27.8
2019-Jun-27 06:30 340 28.3
2019-Jun-27 06:25 356 27.8
2019-Jun-27 06:20 012 0 gusting 1 27.8
2019-Jun-27 06:15 014 27.8
2019-Jun-27 06:10 020 27.8
2019-Jun-27 06:05 014 27.2
2019-Jun-27 06:00 360 27.2
2019-Jun-27 05:55 27.2
2019-Jun-27 05:50 27.2
2019-Jun-27 05:45 057 26.7
2019-Jun-27 05:40 059 26.1
2019-Jun-27 05:35 067 25.6
2019-Jun-27 05:30 25.0
2019-Jun-27 05:25 24.4
2019-Jun-27 05:20 24.4
2019-Jun-27 05:15 23.9
2019-Jun-27 05:10 23.9
2019-Jun-27 05:05 23.9
2019-Jun-27 05:00 23.3
2019-Jun-27 04:55 23.3
2019-Jun-27 04:50 23.3
2019-Jun-27 04:05 006 23.9
2019-Jun-27 04:00 006 23.3
2019-Jun-27 03:55 22.8
2019-Jun-27 03:50 22.8
2019-Jun-27 03:45 22.2
2019-Jun-27 03:40 22.8
2019-Jun-27 03:35 23.3
2019-Jun-27 03:30 23.3
2019-Jun-27 03:25 23.3
2019-Jun-27 03:20 23.3
2019-Jun-27 03:15 23.3
2019-Jun-27 03:10 23.3
2019-Jun-27 03:04 22.8
2019-Jun-27 03:00 22.8
2019-Jun-27 02:53 22.8
2019-Jun-27 02:49 23.3
2019-Jun-27 02:45 23.3
2019-Jun-27 02:40 23.3
2019-Jun-27 02:34 23.3
2019-Jun-27 02:30 23.3
2019-Jun-27 02:25 23.3
2019-Jun-27 02:20 23.3
2019-Jun-27 02:15 23.3
2019-Jun-27 02:10 23.3
2019-Jun-27 02:03 23.3
2019-Jun-27 02:00 23.3
2019-Jun-27 01:55 23.3
2019-Jun-27 01:50 23.3
2019-Jun-27 01:45 23.3
2019-Jun-27 01:37 23.3
2019-Jun-27 01:35 23.3
2019-Jun-27 01:30 23.3
2019-Jun-27 01:24 23.3
2019-Jun-27 01:20 23.3
2019-Jun-27 01:15 23.9
2019-Jun-27 01:09 24.4
2019-Jun-27 01:05 24.4
2019-Jun-27 01:00 24.4
2019-Jun-27 00:55 24.4
2019-Jun-27 00:49 24.4
2019-Jun-27 00:45 24.4
2019-Jun-27 00:40 25.0
2019-Jun-27 00:35 25.0
2019-Jun-27 00:25 25.0
2019-Jun-27 00:20 25.0
2019-Jun-27 00:15 25.0
2019-Jun-27 00:10 24.4
2019-Jun-27 00:05 24.4
2019-Jun-27 00:00 24.4
2019-Jun-26 23:55 24.4
2019-Jun-26 23:50 23.9
2019-Jun-26 23:45 23.9
2019-Jun-26 23:40 23.9
2019-Jun-26 23:35 23.9
2019-Jun-26 23:30 23.9
2019-Jun-26 23:25 23.9
2019-Jun-26 23:20 23.9
2019-Jun-26 23:15 23.9
2019-Jun-26 23:10 23.9
2019-Jun-26 23:05 23.9
2019-Jun-26 23:00 24.4
2019-Jun-26 22:55 24.4
2019-Jun-26 12:10 027 3 gusting 7 28.9
2019-Jun-26 12:05 035 3 gusting 7 28.9
2019-Jun-26 12:00 036 4 gusting 7 28.9
2019-Jun-26 11:55 020 3 gusting 8 28.9
2019-Jun-26 11:50 016 3 gusting 8 28.9
2019-Jun-26 11:45 019 3 gusting 6 28.9
2019-Jun-26 11:40 017 3 gusting 6 28.9
2019-Jun-26 11:35 021 3 gusting 6 29.4
2019-Jun-26 11:30 026 3 gusting 7 29.4
2019-Jun-26 11:25 024 3 gusting 7 28.9
2019-Jun-26 11:20 018 3 gusting 7 28.9
2019-Jun-26 11:15 008 3 gusting 6 28.9
2019-Jun-26 11:10 357 4 gusting 6 28.9
2019-Jun-26 11:05 002 3 gusting 6 28.3
2019-Jun-26 11:00 012 3 gusting 8 28.9
2019-Jun-26 10:55 006 4 gusting 8 28.9
2019-Jun-26 10:50 008 4 gusting 8 28.3
2019-Jun-26 10:45 005 4 gusting 6 28.3
2019-Jun-26 10:40 358 3 gusting 6 28.3
2019-Jun-26 10:35 006 3 gusting 6 28.9
2019-Jun-26 10:30 011 3 gusting 6 28.3
2019-Jun-26 10:25 024 3 gusting 6 28.3
2019-Jun-26 10:20 025 3 gusting 8 28.3
2019-Jun-26 10:15 020 4 gusting 8 28.3
2019-Jun-26 10:10 019 4 gusting 8 28.3
2019-Jun-26 10:05 011 4 gusting 8 28.3
2019-Jun-26 10:00 010 5 gusting 7 28.3
2019-Jun-26 09:55 013 4 gusting 7 28.3
2019-Jun-26 09:50 020 4 gusting 7 28.9
2019-Jun-26 09:45 034 3 gusting 6 28.9
2019-Jun-26 09:40 037 3 gusting 6 28.9
2019-Jun-26 09:35 028 3 gusting 5 28.9
2019-Jun-26 09:30 023 2 gusting 6 28.9
2019-Jun-26 09:25 017 2 gusting 6 28.9
2019-Jun-26 09:20 009 2 gusting 5 28.9
2019-Jun-26 09:15 021 1 gusting 5 29.4
2019-Jun-26 09:10 030 0 gusting 5 28.9
2019-Jun-26 09:05 013 1 gusting 6 28.9
2019-Jun-26 09:00 018 1 gusting 6 28.3
2019-Jun-26 08:55 014 2 gusting 5 28.3
2019-Jun-26 08:50 012 2 gusting 7 28.3
2019-Jun-26 08:45 011 3 gusting 7 28.3
2019-Jun-26 08:40 017 3 gusting 7 28.3
2019-Jun-26 08:35 024 3 gusting 6 28.3
2019-Jun-26 08:30 017 3 gusting 6 28.3
2019-Jun-26 08:25 027 2 gusting 6 28.9
2019-Jun-26 08:20 034 2 gusting 5 28.3
2019-Jun-26 08:15 031 2 gusting 6 28.3
2019-Jun-26 08:10 024 3 gusting 6 28.3
2019-Jun-26 08:05 020 2 gusting 6 28.3
2019-Jun-26 08:00 028 2 gusting 6 28.3
2019-Jun-26 07:55 036 1 gusting 4 28.3
2019-Jun-26 05:15 25.6
2019-Jun-26 05:10 24.4
2019-Jun-26 05:05 24.4
2019-Jun-26 05:00 23.9
2019-Jun-26 04:55 23.9
2019-Jun-26 04:50 23.3
2019-Jun-26 04:45 23.3
2019-Jun-26 04:40 23.3
2019-Jun-26 04:35 22.8
2019-Jun-26 04:30 22.8
2019-Jun-26 04:25 23.3
2019-Jun-26 04:20 23.3
2019-Jun-26 04:15 23.3
2019-Jun-26 04:10 23.3
2019-Jun-26 04:05 22.8
2019-Jun-26 04:00 22.8
2019-Jun-26 03:55 22.8
2019-Jun-26 03:50 22.8
2019-Jun-26 03:45 22.8
2019-Jun-26 03:40 22.8
2019-Jun-26 03:35 22.8
2019-Jun-26 03:30 22.8
2019-Jun-26 03:25 22.8
2019-Jun-26 03:20 22.8
2019-Jun-26 03:15 22.8
2019-Jun-26 03:10 22.8
2019-Jun-26 03:05 23.3
2019-Jun-26 03:00 23.3
2019-Jun-26 02:55 23.3
2019-Jun-26 02:50 23.3
2019-Jun-26 02:45 23.3
2019-Jun-26 02:40 23.3
2019-Jun-26 02:35 23.3
2019-Jun-26 02:30 23.3
2019-Jun-26 02:25 23.3
2019-Jun-26 02:20 22.8
2019-Jun-26 02:15 22.8
2019-Jun-26 02:10 22.8
2019-Jun-26 02:05 22.8
2019-Jun-26 02:00 22.8
2019-Jun-26 01:55 22.8
2019-Jun-26 01:50 23.3
2019-Jun-26 01:45 23.3
2019-Jun-26 01:40 23.3
2019-Jun-26 01:35 23.3
2019-Jun-26 01:30 22.8
2019-Jun-26 01:25 23.3
2019-Jun-26 01:20 22.8
2019-Jun-26 01:15 22.8
2019-Jun-26 01:10 22.8
2019-Jun-26 01:05 22.8
2019-Jun-26 01:00 22.8
2019-Jun-26 00:55 22.8
2019-Jun-26 00:50 22.8
2019-Jun-26 00:45 22.8
2019-Jun-26 00:40 23.3
2019-Jun-26 00:35 23.3
2019-Jun-26 00:30 23.3
2019-Jun-26 00:25 23.3
2019-Jun-26 00:20 23.3
2019-Jun-26 00:10 23.3
2019-Jun-26 00:05 23.3
2019-Jun-26 00:00 23.3
2019-Jun-25 23:55 23.3
2019-Jun-25 23:50 23.3
2019-Jun-25 23:45 23.3
2019-Jun-25 23:40 23.3
2019-Jun-25 23:35 23.9
2019-Jun-25 23:30 23.9
2019-Jun-25 23:25 24.4
2019-Jun-25 23:20 24.4
2019-Jun-25 23:15 24.4
2019-Jun-25 23:10 24.4
2019-Jun-25 23:05 24.4
2019-Jun-25 23:00 24.4
2019-Jun-25 22:55 25.0
2019-Jun-25 22:50 159 0 gusting 3 25.6
2019-Jun-25 22:44 156 0 gusting 5 25.6
2019-Jun-25 22:40 152 0 gusting 5 25.6
2019-Jun-25 22:35 149 0 gusting 5 25.6
2019-Jun-25 22:30 133 26.1
2019-Jun-25 22:25 132 0 gusting 3 26.7
2019-Jun-25 22:20 124 0 gusting 4 26.7
2019-Jun-25 22:15 138 1 gusting 5 26.7
2019-Jun-25 22:10 138 1 gusting 6 26.7
2019-Jun-25 22:05 128 2 gusting 6 26.7
2019-Jun-25 21:59 124 2 gusting 6 26.7
2019-Jun-25 21:55 126 1 gusting 6 26.7
2019-Jun-25 21:50 125 1 gusting 5 26.7
2019-Jun-25 21:45 130 2 gusting 5 26.7
2019-Jun-25 21:40 136 2 gusting 5 26.7
2019-Jun-25 21:35 138 0 gusting 5 26.1
2019-Jun-25 21:30 26.1
2019-Jun-25 21:25 143 26.7
2019-Jun-25 21:20 116 1 gusting 7 26.7
2019-Jun-25 21:10 126 1 gusting 5 26.7
2019-Jun-25 21:05 127 26.7
2019-Jun-25 21:00 113 26.7
2019-Jun-25 20:55 120 26.7
2019-Jun-25 20:50 123 0 gusting 4 26.7
2019-Jun-25 20:45 125 0 gusting 3 26.7
2019-Jun-25 20:40 098 26.7
2019-Jun-25 20:35 107 26.7
2019-Jun-25 20:30 157 26.1
2019-Jun-25 20:25 132 0 gusting 4 26.1
2019-Jun-25 20:20 131 0 gusting 4 25.6
2019-Jun-25 20:15 112 25.0
2019-Jun-25 20:10 25.0
2019-Jun-25 20:05 25.0
2019-Jun-25 20:00 25.0
2019-Jun-25 19:55 25.0
2019-Jun-25 19:50 25.0
2019-Jun-25 19:45 25.0
2019-Jun-25 19:40 25.0
2019-Jun-25 19:35 25.0
2019-Jun-25 19:30 25.6
2019-Jun-25 19:25 25.0
2019-Jun-25 19:20 25.6
2019-Jun-25 19:15 25.0
2019-Jun-25 19:10 25.6
2019-Jun-25 19:05 25.6
2019-Jun-25 19:00 25.6
2019-Jun-25 18:55 26.1
2019-Jun-25 18:50 26.1
2019-Jun-25 18:45 26.1
2019-Jun-25 18:40 26.7
2019-Jun-25 18:35 26.7
2019-Jun-25 18:30 26.7
2019-Jun-25 18:25 356 26.7
2019-Jun-25 18:20 356 26.7
2019-Jun-25 18:15 26.7
2019-Jun-25 18:10 26.7
2019-Jun-25 18:05 290 0 gusting 5 26.7
2019-Jun-25 18:00 292 2 gusting 7 26.7
2019-Jun-25 17:55 282 2 gusting 7 27.2
2019-Jun-25 17:50 253 0 gusting 7 27.8
2019-Jun-25 17:45 253 28.3
2019-Jun-25 17:40 356 0 gusting 3 28.3
2019-Jun-25 17:35 357 1 gusting 5 28.3
2019-Jun-25 17:30 009 1 gusting 5 28.3
2019-Jun-25 17:25 008 2 gusting 7 28.3
2019-Jun-25 17:20 009 3 gusting 7 28.3
2019-Jun-25 17:15 017 4 gusting 9 28.3
2019-Jun-25 17:10 023 4 gusting 9 28.3
2019-Jun-25 17:05 018 3 gusting 7 28.3
2019-Jun-25 17:00 012 4 gusting 7 28.3
2019-Jun-25 16:55 014 4 gusting 7 28.3
2019-Jun-25 16:50 022 4 gusting 7 28.3
2019-Jun-25 16:45 021 4 gusting 7 28.3
2019-Jun-25 16:40 018 4 gusting 9 28.3
2019-Jun-25 16:35 025 4 gusting 9 28.9
2019-Jun-25 16:30 026 4 gusting 9 28.9
2019-Jun-25 16:25 022 3 gusting 7 28.9
2019-Jun-25 16:20 021 3 gusting 6 29.4
2019-Jun-25 16:15 018 3 gusting 6 29.4
2019-Jun-25 16:10 009 4 gusting 7 28.9
2019-Jun-25 16:05 021 5 gusting 9 28.9
2019-Jun-25 16:00 020 5 gusting 9 28.9
2019-Jun-25 15:55 360 3 gusting 9 28.9
2019-Jun-25 15:50 351 2 gusting 8 28.9
2019-Jun-25 15:45 357 3 gusting 8 28.9
2019-Jun-25 15:40 002 3 gusting 7 28.9
2019-Jun-25 15:35 012 3 gusting 8 28.9
2019-Jun-25 15:30 023 3 gusting 9 28.9
2019-Jun-25 15:25 012 3 gusting 9 28.9
2019-Jun-25 15:20 004 3 gusting 9 28.3
2019-Jun-25 15:15 007 3 gusting 9 28.3
2019-Jun-25 15:10 007 3 gusting 7 28.3